Location: Waco, TX
(31.5480°N, 97.1670°W)
Time: 22:54:47
(UTC-05:00)

ISS - Pass Details

Date: 26 April 2018
Orbit: 403 x 406 km, 51.6° (Epoch: 23 April)

Event Time Altitude Azimuth Distance (km) Brightness Sun altitude
Rises 08:44:20 0° 266° (W) 2,307 -0.6 23.5°
Reaches altitude 10° 08:47:11 10° 293° (WNW) 1,452 -1.5 24.1°
Maximum altitude 08:48:57 14° 327° (NNW) 1,246 -1.6 24.5°
Drops below altitude 10° 08:50:44 10° 360° (N) 1,456 -0.9 24.9°
Sets 08:53:36 0° 27° (NNE) 2,318 0.4 25.5°
